Weather History for Borden, ON

Change the Weather History Date:

Friday, October 12, 2012

  Actual Average Record
Temperature  
Mean Temperature 36 °F -  
Max Temperature 46 °F 50 °F 75 °F (2008)
Min Temperature 26 °F 34 °F 24 °F (2004)
Degree Days  
Heating Degree Days 29    
Moisture  
Dew Point 27 °F    
Average Humidity 64    
Maximum Humidity 81    
Minimum Humidity 25    
Precipitation  
Precipitation 0.02 in - - ()
Sea Level Pressure  
Sea Level Pressure 30.28 in    
Wind  
Wind Speed 7 mph ()    
Max Wind Speed 14 mph    
Max Gust Speed 25 mph    
Visibility 9.0 miles    
Events Rain    
Averages and records for this station are not official NWS values.
T = Trace of Precipitation, MM = Missing Value Source: Averaged Metar Reports

Daily Weather History Graph

Daily Weather History Graph

Search for Another Location

Airport:

Trip Planner

Search our weather history database for the weather conditions in past years. The results will help you decide how hot, cold, wet, or windy it might be!

Date:

Astronomy

Oct. 12, 2012 Rise Set
Actual Time 7:31 AM EDT 6:39 PM EDT
Civil Twilight 7:02 AM EDT 7:08 PM EDT
Nautical Twilight 6:28 AM EDT 7:42 PM EDT
Astronomical Twilight 5:55 AM EDT 8:16 PM EDT
Moon 4:06 AM EDT (10/12) 4:53 PM EDT (10/12)
Length of Visible Light 12h 06m
Length of Day
11h 08m
Waning Crescent, 11% of the Moon is Illuminated
Oct 12
Waning Crescent
Oct 15
New
Oct 21
First Quarter
Oct 29
Full
Nov 6
Last Quarter

Hourly Weather History & Observations

Time (EDT) Temp. Windchill Dew Point Humidity Pressure Visibility Wind Dir Wind Speed Gust Speed Precip Events Conditions
12:00 AM 42.8 °F 38.6 °F 35.6 °F 76% 30.05 in 9.0 mi West 6.9 mph - N/A   Overcast
2:00 AM 42 °F - 33 °F 60% 30.07 in 9 mi WSW 8.1 mph - -  
2:00 AM 41.0 °F 36.4 °F 32.0 °F 70% 30.07 in 9.0 mi West 6.9 mph - N/A   Scattered Clouds
3:00 AM 41.0 °F 35.2 °F 30.2 °F 65% 30.09 in 9.0 mi West 9.2 mph 17.3 mph N/A   Clear
3:31 AM 39.2 °F 33.6 °F 30.2 °F 70% 30.07 in 9.0 mi WNW 8.1 mph - N/A Rain Light Rain
3:45 AM 39.2 °F 32.5 °F 30.2 °F 70% 30.08 in 9.0 mi West 10.4 mph - N/A   Partly Cloudy
3:56 AM 39.2 °F 34.2 °F 30.2 °F 70% 30.08 in 9.0 mi West 6.9 mph - N/A Rain Light Rain
4:00 AM 39.2 °F 33.0 °F 30.2 °F 70% 30.11 in 9.0 mi WNW 9.2 mph - N/A Rain Light Rain
5:00 AM 39.2 °F 34.2 °F 32.0 °F 75% 30.16 in 9.0 mi North 6.9 mph - N/A   Overcast
5:30 AM 37.4 °F 28.9 °F 30.2 °F 75% 30.16 in 9.0 mi North 13.8 mph - N/A Rain Light Rain
5:32 AM 35.6 °F 27.1 °F 30.2 °F 81% 30.16 in 9.0 mi North 12.7 mph - N/A Rain Rain
5:54 AM 35.6 °F 28.0 °F 30.2 °F 81% 30.17 in 9.0 mi North 10.4 mph - N/A   Mostly Cloudy
6:00 AM 35.6 °F 29.2 °F 30.2 °F 81% 30.20 in 9.0 mi North 8.1 mph - N/A   Overcast
6:16 AM 35.6 °F 30.7 °F 28.4 °F 75% 30.19 in 9.0 mi North 5.8 mph - N/A   Mostly Cloudy
7:00 AM 33.8 °F 29.6 °F 28.4 °F 81% 30.25 in 9.0 mi North 4.6 mph - N/A   Partly Cloudy
8:00 AM 34 °F - 27 °F 67% 30.30 in 9 mi North 4.6 mph - -  
8:00 AM 33.8 °F 28.6 °F 26.6 °F 75% 30.30 in 9.0 mi North 5.8 mph - N/A   Mostly Cloudy
8:14 AM 35.6 °F 29.9 °F 28.4 °F 75% 30.28 in 9.0 mi North 6.9 mph - N/A Rain Light Rain
8:29 AM 35.6 °F 29.9 °F 26.6 °F 70% 30.29 in 9.0 mi North 6.9 mph - N/A   Mostly Cloudy
9:00 AM 37.4 °F 30.8 °F 28.4 °F 70% 30.33 in 9.0 mi North 9.2 mph - N/A   Scattered Clouds
9:57 AM 39.2 °F 32.0 °F 24.8 °F 56% 30.34 in 9.0 mi NNE 11.5 mph - N/A   Unknown
10:12 AM 41.0 °F 36.4 °F 26.6 °F 57% 30.34 in 9.0 mi North 6.9 mph - N/A   Scattered Clouds
11:00 AM 41.0 °F 33.9 °F 24.8 °F 53% 30.38 in 9.0 mi North 12.7 mph 18.4 mph N/A   Partly Cloudy
12:00 PM 42.8 °F 36.2 °F 23.0 °F 46% 30.40 in 9.0 mi NNW 12.7 mph 18.4 mph N/A   Mostly Cloudy
1:00 PM 42.8 °F 37.5 °F 23.0 °F 46% 30.41 in 9.0 mi North 9.2 mph 25.3 mph N/A   Partly Cloudy
2:00 PM 46 °F - 22 °F 25% 30.40 in 9 mi NNW 13.8 mph - -  
2:00 PM 46.4 °F 42.4 °F 21.2 °F 37% 30.40 in 9.0 mi NNW 8.1 mph 23.0 mph N/A   Partly Cloudy
3:00 PM 44.6 °F 39.7 °F 21.2 °F 39% 30.40 in 9.0 mi NW 9.2 mph - N/A   Clear
4:00 PM 44.6 °F 41.4 °F 23.0 °F 43% 30.40 in 9.0 mi NNW 5.8 mph - N/A   Partly Cloudy
5:00 PM 44.6 °F 42.2 °F 21.2 °F 39% 30.41 in 9.0 mi NW 4.6 mph - N/A   Clear
6:00 PM 42.8 °F 40.1 °F 21.2 °F 42% 30.43 in 9.0 mi NNW 4.6 mph - N/A   Clear
7:00 PM 35.6 °F - 23.0 °F 60% 30.43 in 9.0 mi Calm Calm - N/A   Clear
8:00 PM 30.2 °F - 21.2 °F 69% 30.44 in 9.0 mi SSW 2.3 mph - N/A   Clear
9:00 PM 28.4 °F 24.6 °F 21.2 °F 74% 30.45 in 9.0 mi SSW 3.5 mph - N/A   Clear
10:00 PM 26.6 °F - 19.4 °F 74% 30.46 in 9.0 mi SSW 2.3 mph - N/A   Clear
11:00 PM 26.6 °F - 19.4 °F 74% 30.46 in 9.0 mi Calm Calm - N/A   Clear